Location: Nachod
(50.4170°N, 16.1670°E)
Time: 10:28:45
(UTC+02:00)

ISS - Pass Details

Date: 02 April 2019
Orbit: 408 x 410 km, 51.6° (Epoch: 21 April)

Event Time Altitude Azimuth Distance (km) Brightness Sun altitude
Rises 20:55:59 0° 286° (WNW) 2,339 1.8 -14.0°
Reaches altitude 10° 20:58:05 10° 283° (WNW) 1,476 0.3 -14.3°
Maximum altitude 21:01:22 65° 201° (SSW) 452 -3.7 -14.8°
Enters shadow 21:02:36 34° 130° (SE) 696 -3.2 -15.0°
